Regional Weather Roundup
Issued by NWS New Orleans/Baton Rouge, LA

Home | Current Version | Previous Version | Text Only | Print | Product List | Glossary On
Versions: 1 2 3 4 5 6 7 8 9 10 11 12 13 14 15 16 17 18 19 20 21 22 23 24 25 26 27 28 29 30 31 32 33 34 35 36 37 38 39 40 41 42 43 44 45 46 47 48 49 50
000
ASUS44 KLIX 211010
RWRLIX
NEW ORLEANS REGIONAL WEATHER ROUNDUP
NATIONAL WEATHER SERVICE NEW ORLEANS LA
500 AM CDT THU AUG 21 2014

NOTE: "FAIR" INDICATES FEW OR NO CLOUDS BELOW 12,000 FEET WITH NO
      SIGNIFICANT WEATHER AND/OR OBSTRUCTIONS TO VISIBILITY.
      SKY/WX - SKY CONDITION AND SIGNIFICANT WEATHER.
      TMP - AIR TEMPERATURE.     DP    - DEWPOINT TEMPERATURE.
      RH  - RELATIVE HUMIDITY.   PRES  - PRESSURE.
      HI  - HEAT INDEX.          WCI   - WIND CHILL INDEX.

*  THESE STATIONS ARE NOT NWS OR FAA STATIONS AND ARE NOT UNDER
   NWS QUALITY CONTROL.

LAZ038-040-048-061>063-065>067-069-211100-
SOUTHEAST LOUISIANA

CITY           SKY/WX    TMP DP  RH WIND       PRES   REMARKS
N.O. AUDUBON   NOT AVBL
N.O. INTL ARPT MOCLDY    77  74  90 W3        30.10R
N.O. LAKEFRONT PTCLDY    79  75  87 SE3       30.10R
N.O. DOWNTOWN*   N/A     82  73  74 S3        30.11R
SLIDELL        CLEAR     75  72  90 CALM      30.09R
BATON ROUGE    MOCLDY    74  72  93 NE3       30.09R
BOOTHVILLE     PTCLDY    83  77  82 SW5       30.09F
BELLE CHASSE   PTCLDY    74  71  91 CALM      30.09R
BOGALUSA*        N/A     73  70  89 CALM      30.12R
GALLIANO*      NOT AVBL
NEW ROADS*       N/A     74  73  96 CALM      30.09R
GONZALES*        N/A     73  73  99 CALM      30.08S
HAMMOND*       PTCLDY    73  70  88 CALM      30.11R
HOUMA*         PTCLDY    74  71  90 CALM      30.09R
PORT FOURCHON* SUNNY     84  75  74 CALM      30.10S

$$

MSZ070-080>082-211100-
SOUTHERN MISSISSIPPI

CITY           SKY/WX    TMP DP  RH WIND       PRES   REMARKS
MCCOMB         CLEAR     71  68  90 CALM      30.11R
GULFPORT       CLEAR     78  76  93 CALM      30.09R
BILOXI         PTCLDY    80  77  92 CALM      30.09R
PASCAGOULA     PTCLDY    74  73  97 CALM      30.09R FOG

$$

COASTAL OBSERVATIONS
LAKE AND NEARSHORE STATIONS

STATION/POSITION TIME  TEMP    WIND        PRES    WAVE
                       AIR SEA DIR/SP/G            HT/PER
                 (UTC) (F)     (DEG/KT/KT) (MB)    (FT/S)
PASCAGOULA       1000   85     240/  8/  9 1018.3
WAVELAND YACHT   1000   79     290/  1/  3 1018.4
GRAND ISLE       1000   84 88  220/  4/  7 1019.5
SOUTHWEST PASS   1000   85 88  210/  4/  6 1019.2
NEW CANAL        1000   80 83  200/  2/  3 1019.5
SHELL BEACH      1000   82 82  190/  3/  4 1018.7

OFFSHORE STATIONS

STATION/POSITION TIME  TEMP    WIND        PRES    WAVE
                       AIR SEA DIR/SP/G            HT/PER
                 (UTC) (F)     (DEG/KT/KT) (MB)    (FT/S)
64 S DAUPHIN ISL 0852   85 87  240/  4/  6 1019.1

$$




USA.gov is the U.S. government's official web portal to all federal, state and local government web resources and services.